When you browse on this site, cookies collect data to enhance your experience and personalize the content and advertising you see.
Visit our Privacy Policy to learn more. By continuing to use the site, you agree to this use of cookies and data.
  • In Romania
  • List of Countries
  • For 7 days
  • Water Temperature
  • Satellite Maps
  • Weather Map
  • Weather Widgets
  • user-avatar
    Login

    Hourly Weather Yastrebovka

    Today, 24 March, Sunday

    Time Temperature Precipitation Wind Pressure Humidity
    00:00 -2°C° 0 mm 5 mps 747 mmHg 94%
    01:00 -2°C° 0 mm 4 mps 747 mmHg 95%
    02:00 -2°C° 0 mm 4 mps 747 mmHg 95%
    03:00 -2°C° 0 mm 3 mps 747 mmHg 95%
    04:00 -4°C° 0 mm 3 mps 747 mmHg 95%
    05:00 -5°C° 0 mm 3 mps 748 mmHg 94%
    06:00 -5°C° 0 mm 2 mps 748 mmHg 94%
    07:00 -5°C° 0 mm 2 mps 748 mmHg 93%
    08:00 -4°C° 0 mm 2 mps 747 mmHg 91%
    09:00 -2°C° 0 mm 1 mps 747 mmHg 90%
    10:00 -1°C° 0 mm 1 mps 747 mmHg 90%
    11:00 0°C° 0 mm 1 mps 747 mmHg 90%
    12:00 +1°C° 0 mm 1 mps 747 mmHg 90%
    13:00 +1°C° 0 mm 1 mps 746 mmHg 92%
    14:00 +1°C° 0 mm 1 mps 746 mmHg 93%
    15:00 +1°C° 0 mm 1 mps 746 mmHg 95%
    16:00 +1°C° 0 mm 1 mps 745 mmHg 95%
    17:00 +1°C° 0 mm 1 mps 745 mmHg 94%
    18:00 +1°C° 0 mm 1 mps 744 mmHg 94%
    19:00 -1°C° 0 mm 2 mps 744 mmHg 94%
    20:00 -2°C° 0 mm 2 mps 744 mmHg 94%
    21:00 -2°C° 0 mm 2 mps 743 mmHg 94%
    22:00 -2°C° 0.2 mm 2 mps 743 mmHg 95%
    23:00 -2°C° 0.2 mm 3 mps 742 mmHg 95%

    Tomorrow, 25 March, Monday

    Time Temperature Precipitation Wind Pressure Humidity
    00:00 -2°C° 0.2 mm 3 mps 742 mmHg 96%
    01:00 -3°C° 0.1 mm 4 mps 742 mmHg 96%
    02:00 -3°C° 0.1 mm 4 mps 741 mmHg 96%
    03:00 -3°C° 0.1 mm 4 mps 741 mmHg 95%
    04:00 -3°C° 0 mm 4 mps 741 mmHg 94%
    05:00 -4°C° 0 mm 4 mps 741 mmHg 93%
    06:00 -6°C° 0 mm 5 mps 741 mmHg 92%
    07:00 -5°C° 0 mm 5 mps 741 mmHg 91%
    08:00 -4°C° 0 mm 5 mps 742 mmHg 89%
    09:00 -4°C° 0 mm 6 mps 742 mmHg 88%
    10:00 -2°C° 0 mm 5 mps 742 mmHg 88%
    11:00 -1°C° 0 mm 5 mps 743 mmHg 89%
    12:00 -1°C° 0 mm 5 mps 743 mmHg 90%
    13:00 0°C° 0 mm 5 mps 743 mmHg 88%
    14:00 0°C° 0 mm 5 mps 744 mmHg 86%
    15:00 0°C° 0 mm 5 mps 744 mmHg 83%
    16:00 0°C° 0 mm 4 mps 744 mmHg 84%
    17:00 0°C° 0 mm 3 mps 744 mmHg 86%
    18:00 -1°C° 0 mm 3 mps 745 mmHg 87%
    19:00 -1°C° 0 mm 3 mps 745 mmHg 87%
    20:00 -2°C° 0 mm 2 mps 745 mmHg 87%
    21:00 -2°C° 0 mm 2 mps 746 mmHg 87%
    22:00 -2°C° 0 mm 2 mps 746 mmHg 85%
    23:00 -2°C° 0 mm 2 mps 746 mmHg 84%

    Day after tomorrow, 26 March, Tuesday

    Time Temperature Precipitation Wind Pressure Humidity
    00:00 -2°C° 0 mm 2 mps 746 mmHg 82%
    01:00 -2°C° 0 mm 2 mps 746 mmHg 82%
    02:00 -2°C° 0 mm 3 mps 746 mmHg 81%
    03:00 -2°C° 0 mm 3 mps 746 mmHg 81%
    04:00 -2°C° 0 mm 3 mps 745 mmHg 81%
    05:00 -2°C° 0 mm 3 mps 745 mmHg 81%
    06:00 -3°C° 0 mm 4 mps 745 mmHg 81%
    07:00 -2°C° 0.1 mm 4 mps 744 mmHg 81%
    08:00 -1°C° 0.1 mm 4 mps 744 mmHg 82%
    09:00 -1°C° 0.1 mm 4 mps 744 mmHg 83%
    10:00 -1°C° 1.2 mm 4 mps 743 mmHg 87%
    11:00 -1°C° 1.2 mm 4 mps 743 mmHg 92%
    12:00 -1°C° 1.2 mm 4 mps 742 mmHg 96%
    13:00 0°C° 0.1 mm 4 mps 742 mmHg 97%
    14:00 +1°C° 0.1 mm 3 mps 742 mmHg 98%
    15:00 +2°C° 0.1 mm 3 mps 741 mmHg 98%
    16:00 +1°C° 0 mm 3 mps 741 mmHg 98%
    17:00 +1°C° 0 mm 3 mps 741 mmHg 98%
    18:00 +2°C° 0 mm 2 mps 741 mmHg 98%
    19:00 +2°C° 0 mm 2 mps 741 mmHg 98%
    20:00 +1°C° 0 mm 3 mps 741 mmHg 97%
    21:00 0°C° 0 mm 3 mps 741 mmHg 96%
    22:00 0°C° 0 mm 3 mps 741 mmHg 95%
    23:00 0°C° 0 mm 3 mps 741 mmHg 93%

    27 March, Wednesday

    Time Temperature Precipitation Wind Pressure Humidity
    00:00 -1°C° 0 mm 3 mps 741 mmHg 92%
    01:00 -1°C° 0 mm 3 mps 741 mmHg 92%
    02:00 -2°C° 0 mm 3 mps 742 mmHg 91%
    03:00 -2°C° 0 mm 3 mps 742 mmHg 91%
    04:00 -3°C° 0 mm 2 mps 742 mmHg 90%
    05:00 -3°C° 0 mm 2 mps 742 mmHg 89%
    06:00 -3°C° 0 mm 2 mps 743 mmHg 89%
    07:00 0°C° 0 mm 1 mps 743 mmHg 85%
    08:00 0°C° 0 mm 1 mps 743 mmHg 81%
    09:00 +1°C° 0 mm 1 mps 744 mmHg 78%
    10:00 +2°C° 0 mm 1 mps 744 mmHg 75%
    11:00 +3°C° 0 mm 1 mps 743 mmHg 72%
    12:00 +3°C° 0 mm 1 mps 743 mmHg 69%
    13:00 +2°C° 0 mm 2 mps 743 mmHg 68%
    14:00 +3°C° 0 mm 2 mps 743 mmHg 68%
    15:00 +2°C° 0 mm 3 mps 743 mmHg 67%
    16:00 +1°C° 0 mm 3 mps 743 mmHg 72%
    17:00 +1°C° 0 mm 2 mps 743 mmHg 77%
    18:00 -1°C° 0 mm 2 mps 743 mmHg 83%
    19:00 -1°C° 0.2 mm 3 mps 743 mmHg 84%
    20:00 -1°C° 0.2 mm 3 mps 744 mmHg 85%
    21:00 -2°C° 0.2 mm 4 mps 744 mmHg 86%
    22:00 -2°C° 0 mm 4 mps 744 mmHg 83%
    23:00 -4°C° 0 mm 5 mps 745 mmHg 79%

    28 March, Thursday

    Time Temperature Precipitation Wind Pressure Humidity
    00:00 -4°C° 0 mm 5 mps 745 mmHg 76%
    01:00 -4°C° 0 mm 5 mps 745 mmHg 78%
    02:00 -4°C° 0 mm 5 mps 746 mmHg 80%
    03:00 -5°C° 0 mm 5 mps 746 mmHg 82%
    04:00 -5°C° 0 mm 5 mps 746 mmHg 83%
    05:00 -5°C° 0 mm 5 mps 746 mmHg 85%
    06:00 -5°C° 0 mm 5 mps 747 mmHg 87%
    07:00 -4°C° 0.1 mm 6 mps 747 mmHg 82%
    08:00 -3°C° 0.1 mm 7 mps 748 mmHg 78%
    09:00 -2°C° 0.1 mm 7 mps 748 mmHg 73%
    10:00 -2°C° 0 mm 7 mps 748 mmHg 74%
    11:00 -2°C° 0 mm 7 mps 749 mmHg 74%
    12:00 -1°C° 0 mm 7 mps 749 mmHg 74%
    13:00 -1°C° 0.2 mm 7 mps 749 mmHg 74%
    14:00 -1°C° 0.2 mm 7 mps 750 mmHg 75%
    15:00 -1°C° 0.2 mm 7 mps 750 mmHg 75%
    16:00 -1°C° 0.1 mm 6 mps 750 mmHg 76%
    17:00 -2°C° 0.1 mm 6 mps 751 mmHg 77%
    18:00 -2°C° 0.1 mm 6 mps 751 mmHg 78%
    19:00 -2°C° 0 mm 5 mps 752 mmHg 80%
    20:00 -2°C° 0 mm 5 mps 752 mmHg 81%
    21:00 -4°C° 0 mm 5 mps 753 mmHg 83%
    22:00 -3°C° 0 mm 4 mps 753 mmHg 82%
    23:00 -3°C° 0 mm 4 mps 753 mmHg 80%

    29 March, Friday

    Time Temperature Precipitation Wind Pressure Humidity
    00:00 -4°C° 0 mm 4 mps 753 mmHg 79%
    01:00 -4°C° 0 mm 4 mps 753 mmHg 79%
    02:00 -4°C° 0 mm 4 mps 753 mmHg 79%
    03:00 -5°C° 0 mm 3 mps 753 mmHg 79%
    04:00 -5°C° 0 mm 4 mps 753 mmHg 78%
    05:00 -5°C° 0 mm 4 mps 752 mmHg 77%
    06:00 -5°C° 0 mm 4 mps 752 mmHg 75%
    07:00 -5°C° 0 mm 5 mps 751 mmHg 70%
    08:00 -4°C° 0 mm 6 mps 751 mmHg 64%
    09:00 -3°C° 0 mm 7 mps 750 mmHg 58%
    10:00 -2°C° 0.1 mm 8 mps 749 mmHg 60%
    11:00 -1°C° 0.1 mm 8 mps 748 mmHg 62%
    12:00 -1°C° 0.1 mm 9 mps 748 mmHg 64%
    13:00 -1°C° 0.8 mm 8 mps 747 mmHg 71%
    14:00 -1°C° 0.8 mm 8 mps 746 mmHg 79%
    15:00 -2°C° 0.8 mm 7 mps 746 mmHg 86%
    16:00 -1°C° 0.2 mm 6 mps 746 mmHg 84%
    17:00 -1°C° 0.2 mm 6 mps 746 mmHg 82%
    18:00 0°C° 0.2 mm 5 mps 746 mmHg 80%
    19:00 -1°C° 0 mm 5 mps 746 mmHg 82%
    20:00 -2°C° 0 mm 5 mps 747 mmHg 83%
    21:00 -4°C° 0 mm 5 mps 747 mmHg 85%
    22:00 -3°C° 0 mm 4 mps 748 mmHg 87%
    23:00 -3°C° 0 mm 4 mps 748 mmHg 88%
    Show more